BBB077 MMMX-MMZC

Flight info

Callsign BBB077
Flight time 0h 58m
Altitude 38000
Route ATURO3B ATURO UT133 AGU J13 ZCL
Aircraft A21N/M-SDE3FGHIRWY/LB1

Departure

Time 2026-05-06 00:02
Airport Mexico City Benito Juárez International Airport (MMMX)

Arrival

Time 2026-05-06 01:01
Airport General Leobardo C. Ruiz International Airport (MMZC)
Time Latitude Longitude Altitude Speed Heading
2026-05-05 23:27 19.43319 -99.08473 7334 ft 0 kts 329°
2026-05-05 23:47 19.43311 -99.08468 7333 ft 2 kts 329°
2026-05-05 23:48 19.43298 -99.08459 7333 ft 2 kts 329°
2026-05-05 23:48 19.43285 -99.08452 7333 ft 2 kts 329°
2026-05-05 23:48 19.43272 -99.08443 7333 ft 2 kts 329°
2026-05-05 23:48 19.43258 -99.08437 7333 ft 2 kts 356°
2026-05-05 23:49 19.43243 -99.08439 7333 ft 2 kts 21°
2026-05-05 23:49 19.43231 -99.08447 7333 ft 2 kts 49°
2026-05-05 23:49 19.43226 -99.08453 7333 ft 1 kts 64°
2026-05-05 23:49 19.43224 -99.08458 7334 ft 0 kts 60°
2026-05-05 23:52 19.43226 -99.08456 7333 ft 2 kts 60°
2026-05-05 23:52 19.43243 -99.08423 7333 ft 7 kts 60°
2026-05-05 23:52 19.43279 -99.08358 7333 ft 12 kts 59°
2026-05-05 23:52 19.43323 -99.08280 7333 ft 12 kts 59°
2026-05-05 23:53 19.43368 -99.08200 7333 ft 12 kts 59°
2026-05-05 23:53 19.43413 -99.08121 7333 ft 12 kts 59°
2026-05-05 23:53 19.43459 -99.08040 7333 ft 12 kts 59°
2026-05-05 23:53 19.43504 -99.07961 7332 ft 12 kts 59°
2026-05-05 23:54 19.43549 -99.07880 7332 ft 12 kts 59°
2026-05-05 23:54 19.43595 -99.07800 7332 ft 12 kts 60°
2026-05-05 23:54 19.43640 -99.07718 7332 ft 12 kts 60°
2026-05-05 23:54 19.43685 -99.07636 7332 ft 12 kts 59°
2026-05-05 23:55 19.43730 -99.07555 7332 ft 12 kts 59°
2026-05-05 23:55 19.43777 -99.07472 7331 ft 12 kts 59°
2026-05-05 23:55 19.43823 -99.07392 7331 ft 12 kts 59°
2026-05-05 23:55 19.43865 -99.07317 7331 ft 8 kts 62°
2026-05-05 23:56 19.43856 -99.07252 7331 ft 11 kts 132°
2026-05-05 23:56 19.43787 -99.07185 7331 ft 15 kts 138°
2026-05-05 23:56 19.43698 -99.07101 7331 ft 18 kts 138°
2026-05-05 23:56 19.43594 -99.07004 7331 ft 20 kts 138°
2026-05-05 23:57 19.43491 -99.06908 7331 ft 19 kts 138°
2026-05-05 23:57 19.43419 -99.06816 7331 ft 14 kts 88°
2026-05-05 23:57 19.43483 -99.06741 7331 ft 14 kts 28°
2026-05-05 23:57 19.43575 -99.06686 7331 ft 15 kts 40°
2026-05-05 23:58 19.43636 -99.06587 7330 ft 16 kts 61°
2026-05-05 23:58 19.43694 -99.06480 7330 ft 17 kts 59°
2026-05-05 23:58 19.43758 -99.06365 7330 ft 18 kts 59°
2026-05-05 23:58 19.43826 -99.06242 7330 ft 19 kts 62°
2026-05-05 23:59 19.43897 -99.06112 7329 ft 20 kts 58°
2026-05-05 23:59 19.43970 -99.05984 7329 ft 19 kts 59°
2026-05-05 23:59 19.44038 -99.05862 7329 ft 19 kts 59°
2026-05-05 23:59 19.44104 -99.05742 7329 ft 18 kts 60°
2026-05-06 00:00 19.44168 -99.05628 7328 ft 17 kts 59°
2026-05-06 00:00 19.44229 -99.05517 7328 ft 17 kts 60°
2026-05-06 00:00 19.44289 -99.05409 7328 ft 16 kts 59°
2026-05-06 00:00 19.44349 -99.05305 7328 ft 16 kts 58°
2026-05-06 00:01 19.44417 -99.05254 7328 ft 12 kts 349°
2026-05-06 00:01 19.44490 -99.05299 7328 ft 12 kts 326°
2026-05-06 00:01 19.44504 -99.05375 7328 ft 12 kts 240°
2026-05-06 00:01 19.44434 -99.05499 7328 ft 41 kts 239°
2026-05-06 00:02 19.44163 -99.05979 7329 ft 109 kts 238°
2026-05-06 00:02 19.43667 -99.06863 7331 ft 166 kts 239°
2026-05-06 00:02 19.43009 -99.08033 7491 ft 196 kts 242°
2026-05-06 00:02 19.42340 -99.09276 8140 ft 192 kts 243°
2026-05-06 00:03 19.41702 -99.10494 8634 ft 192 kts 243°
2026-05-06 00:03 19.41031 -99.11771 8900 ft 205 kts 242°
2026-05-06 00:03 19.40306 -99.13132 9170 ft 219 kts 242°
2026-05-06 00:03 19.39523 -99.14590 9445 ft 234 kts 242°
2026-05-06 00:04 19.38690 -99.16134 9664 ft 253 kts 241°
2026-05-06 00:04 19.37789 -99.17799 10077 ft 264 kts 241°
2026-05-06 00:04 19.37109 -99.19502 10743 ft 262 kts 262°
2026-05-06 00:04 19.37240 -99.21395 11385 ft 262 kts 290°
2026-05-06 00:05 19.39613 -99.24227 12619 ft 266 kts 322°
2026-05-06 00:05 19.41093 -99.25427 13240 ft 268 kts 322°
2026-05-06 00:05 19.42555 -99.26626 13858 ft 271 kts 322°
2026-05-06 00:06 19.44060 -99.27875 14464 ft 275 kts 322°
2026-05-06 00:06 19.45558 -99.29127 15036 ft 279 kts 322°
2026-05-06 00:06 19.47094 -99.30408 15601 ft 284 kts 323°
2026-05-06 00:06 19.48841 -99.31422 16160 ft 287 kts 343°
2026-05-06 00:07 19.51516 -99.31814 16692 ft 302 kts
2026-05-06 00:07 19.52959 -99.31831 16887 ft 313 kts
2026-05-06 00:07 19.55180 -99.31834 17207 ft 327 kts
2026-05-06 00:07 19.57519 -99.31848 17606 ft 340 kts
2026-05-06 00:08 19.59937 -99.31879 17898 ft 354 kts
2026-05-06 00:08 19.62439 -99.31876 18168 ft 369 kts
2026-05-06 00:08 19.65083 -99.31612 18419 ft 383 kts
2026-05-06 00:08 19.67742 -99.31027 18660 ft 397 kts 16°
2026-05-06 00:09 19.70461 -99.30216 18894 ft 411 kts 18°
2026-05-06 00:09 19.73241 -99.29342 19121 ft 423 kts 17°
2026-05-06 00:09 19.76067 -99.28449 19529 ft 429 kts 18°
2026-05-06 00:09 19.78977 -99.27537 20071 ft 432 kts 18°
2026-05-06 00:10 19.81853 -99.26635 20600 ft 434 kts 18°
2026-05-06 00:10 19.84779 -99.25719 21125 ft 437 kts 18°
2026-05-06 00:10 19.87718 -99.24802 21614 ft 440 kts 18°
2026-05-06 00:10 19.90645 -99.23889 22094 ft 443 kts 18°
2026-05-06 00:11 19.93647 -99.22952 22580 ft 446 kts 18°
2026-05-06 00:11 19.96627 -99.22018 23044 ft 450 kts 18°
2026-05-06 00:11 19.99661 -99.21070 23490 ft 454 kts 18°
2026-05-06 00:11 20.02696 -99.20121 23922 ft 458 kts 18°
2026-05-06 00:12 20.05755 -99.19163 24323 ft 461 kts 18°
2026-05-06 00:12 20.08865 -99.18189 24736 ft 465 kts 17°
2026-05-06 00:12 20.12005 -99.17207 25144 ft 468 kts 17°
2026-05-06 00:12 20.15129 -99.16229 25513 ft 472 kts 17°
2026-05-06 00:13 20.18308 -99.15234 25830 ft 476 kts 17°
2026-05-06 00:13 20.21498 -99.14326 26201 ft 479 kts 11°
2026-05-06 00:13 20.24834 -99.14299 26576 ft 481 kts 350°
2026-05-06 00:13 20.27964 -99.15464 27072 ft 477 kts 330°
2026-05-06 00:14 20.30591 -99.17574 27618 ft 472 kts 313°
2026-05-06 00:14 20.32556 -99.20334 28130 ft 466 kts 298°
2026-05-06 00:14 20.34106 -99.23339 28672 ft 463 kts 296°
2026-05-06 00:14 20.35622 -99.26336 29188 ft 462 kts 296°
2026-05-06 00:15 20.37168 -99.29329 29710 ft 461 kts 296°
2026-05-06 00:15 20.38664 -99.32331 30222 ft 459 kts 296°
2026-05-06 00:15 20.40159 -99.35345 30753 ft 457 kts 296°
2026-05-06 00:15 20.41641 -99.38335 31275 ft 455 kts 295°
2026-05-06 00:16 20.43101 -99.41285 31765 ft 453 kts 296°
2026-05-06 00:16 20.44570 -99.44255 32249 ft 452 kts 296°
2026-05-06 00:16 20.46016 -99.47179 32707 ft 450 kts 296°
2026-05-06 00:16 20.47468 -99.50119 33167 ft 448 kts 296°
2026-05-06 00:17 20.48913 -99.53043 33630 ft 447 kts 296°
2026-05-06 00:17 20.50366 -99.55989 34067 ft 446 kts 296°
2026-05-06 00:17 20.51793 -99.58879 34471 ft 445 kts 296°
2026-05-06 00:17 20.53227 -99.61788 34861 ft 444 kts 296°
2026-05-06 00:18 20.54667 -99.64708 35244 ft 443 kts 296°
2026-05-06 00:18 20.56086 -99.67590 35609 ft 442 kts 296°
2026-05-06 00:18 20.57508 -99.70477 35970 ft 441 kts 296°
2026-05-06 00:18 20.58944 -99.73396 36304 ft 440 kts 296°
2026-05-06 00:19 20.60344 -99.76243 36592 ft 440 kts 296°
2026-05-06 00:19 20.61778 -99.79162 36846 ft 440 kts 296°
2026-05-06 00:19 20.63192 -99.82039 37062 ft 441 kts 296°
2026-05-06 00:19 20.64622 -99.84950 37266 ft 443 kts 296°
2026-05-06 00:20 20.66040 -99.87842 37468 ft 444 kts 296°
2026-05-06 00:20 20.67462 -99.90740 37680 ft 444 kts 296°
2026-05-06 00:20 20.68891 -99.93657 37878 ft 445 kts 296°
2026-05-06 00:20 20.70329 -99.96589 38061 ft 446 kts 296°
2026-05-06 00:21 20.71769 -99.99526 38238 ft 446 kts 296°
2026-05-06 00:21 20.74656 -100.05413 38317 ft 452 kts 296°
2026-05-06 00:22 20.77587 -100.11397 38318 ft 457 kts 296°
2026-05-06 00:22 20.80520 -100.17393 38311 ft 457 kts 296°
2026-05-06 00:23 20.83466 -100.23425 38343 ft 458 kts 296°
2026-05-06 00:23 20.86394 -100.29421 38353 ft 457 kts 296°
2026-05-06 00:24 20.89339 -100.35461 38385 ft 457 kts 296°
2026-05-06 00:24 20.92251 -100.41444 38397 ft 456 kts 296°
2026-05-06 00:25 20.95173 -100.47452 38409 ft 455 kts 296°
2026-05-06 00:25 20.98064 -100.53404 38399 ft 454 kts 296°
2026-05-06 00:26 21.00987 -100.59428 38396 ft 454 kts 296°
2026-05-06 00:26 21.03872 -100.65383 38384 ft 454 kts 295°
2026-05-06 00:27 21.06770 -100.71369 38368 ft 453 kts 296°
2026-05-06 00:27 21.09670 -100.77362 38354 ft 453 kts 295°
2026-05-06 00:28 21.12566 -100.83358 38362 ft 453 kts 295°
2026-05-06 00:28 21.15438 -100.89307 38365 ft 453 kts 295°
2026-05-06 00:29 21.18322 -100.95293 38368 ft 453 kts 295°
2026-05-06 00:29 21.21204 -101.01279 38373 ft 453 kts 295°
2026-05-06 00:30 21.24081 -101.07262 38388 ft 452 kts 295°
2026-05-06 00:30 21.26959 -101.13251 38410 ft 452 kts 295°
2026-05-06 00:31 21.29825 -101.19228 38429 ft 453 kts 295°
2026-05-06 00:31 21.32700 -101.25223 38441 ft 453 kts 295°
2026-05-06 00:32 21.35569 -101.31215 38444 ft 453 kts 295°
2026-05-06 00:32 21.38428 -101.37196 38440 ft 453 kts 295°
2026-05-06 00:33 21.41311 -101.43232 38434 ft 453 kts 295°
2026-05-06 00:33 21.44162 -101.49208 38425 ft 453 kts 295°
2026-05-06 00:34 21.47029 -101.55225 38410 ft 453 kts 295°
2026-05-06 00:34 21.49889 -101.61236 38390 ft 453 kts 295°
2026-05-06 00:35 21.52757 -101.67271 38380 ft 454 kts 294°
2026-05-06 00:35 21.55476 -101.73349 38376 ft 452 kts 290°
2026-05-06 00:36 21.57610 -101.79666 38376 ft 450 kts 284°
2026-05-06 00:36 21.59309 -101.86110 38378 ft 450 kts 283°
2026-05-06 00:37 21.60979 -101.92561 38378 ft 450 kts 283°
2026-05-06 00:37 21.62658 -101.99036 38367 ft 451 kts 283°
2026-05-06 00:38 21.64331 -102.05488 38345 ft 450 kts 283°
2026-05-06 00:38 21.66008 -102.11970 38318 ft 449 kts 283°
2026-05-06 00:39 21.67669 -102.18400 38290 ft 449 kts 283°
2026-05-06 00:39 21.69986 -102.24651 38257 ft 453 kts 297°
2026-05-06 00:40 21.73871 -102.29993 38246 ft 458 kts 314°
2026-05-06 00:40 21.79071 -102.34000 38249 ft 464 kts 330°
2026-05-06 00:41 21.85133 -102.36410 38277 ft 468 kts 341°
2026-05-06 00:41 21.91372 -102.38345 38317 ft 467 kts 341°
2026-05-06 00:42 21.97630 -102.40291 38334 ft 467 kts 341°
2026-05-06 00:42 22.00769 -102.41277 38058 ft 462 kts 341°
2026-05-06 00:42 22.03820 -102.42239 37765 ft 457 kts 341°
2026-05-06 00:42 22.06877 -102.43207 37469 ft 457 kts 341°
2026-05-06 00:43 22.09953 -102.44180 37173 ft 458 kts 340°
2026-05-06 00:43 22.12979 -102.45141 36881 ft 459 kts 340°
2026-05-06 00:43 22.16069 -102.46121 36587 ft 460 kts 340°
2026-05-06 00:43 22.19131 -102.47092 36296 ft 460 kts 340°
2026-05-06 00:44 22.22203 -102.48066 36005 ft 461 kts 340°
2026-05-06 00:44 22.25292 -102.49047 35714 ft 462 kts 340°
2026-05-06 00:44 22.28392 -102.50034 35424 ft 463 kts 340°
2026-05-06 00:44 22.31498 -102.51022 35135 ft 464 kts 340°
2026-05-06 00:45 22.34572 -102.52001 34849 ft 465 kts 340°
2026-05-06 00:45 22.37685 -102.52993 34431 ft 467 kts 340°
2026-05-06 00:45 22.40814 -102.53990 33850 ft 470 kts 340°
2026-05-06 00:45 22.43954 -102.54990 33150 ft 472 kts 340°
2026-05-06 00:46 22.47115 -102.56000 32444 ft 473 kts 340°
2026-05-06 00:46 22.50267 -102.57006 31723 ft 474 kts 340°
2026-05-06 00:46 22.53423 -102.58015 30951 ft 476 kts 340°
2026-05-06 00:46 22.56606 -102.59032 30151 ft 479 kts 340°
2026-05-06 00:47 22.59801 -102.60053 29331 ft 481 kts 340°
2026-05-06 00:47 22.63038 -102.61091 28471 ft 484 kts 340°
2026-05-06 00:47 22.66251 -102.62121 27733 ft 482 kts 340°
2026-05-06 00:47 22.69457 -102.63146 27159 ft 477 kts 340°
2026-05-06 00:48 22.72620 -102.64157 26606 ft 471 kts 340°
2026-05-06 00:48 22.75727 -102.65151 26064 ft 467 kts 340°
2026-05-06 00:48 22.78852 -102.66154 25513 ft 462 kts 340°
2026-05-06 00:48 22.81897 -102.67130 24975 ft 458 kts 340°
2026-05-06 00:49 22.84937 -102.68101 24434 ft 454 kts 341°
2026-05-06 00:49 22.88003 -102.68867 23893 ft 452 kts 346°
2026-05-06 00:49 22.91136 -102.69318 23331 ft 450 kts 352°
2026-05-06 00:49 22.94278 -102.69469 22778 ft 447 kts 356°
2026-05-06 00:50 22.97333 -102.69507 22279 ft 436 kts 357°
2026-05-06 00:50 23.00301 -102.69524 21726 ft 418 kts 357°
2026-05-06 00:50 23.03174 -102.69547 21214 ft 399 kts 357°
2026-05-06 00:50 23.05882 -102.69577 20753 ft 381 kts 356°
2026-05-06 00:51 23.08491 -102.69612 20322 ft 372 kts 356°
2026-05-06 00:51 23.11068 -102.69649 20011 ft 363 kts 356°
2026-05-06 00:51 23.13543 -102.69684 19634 ft 354 kts 356°
2026-05-06 00:51 23.15992 -102.69720 19151 ft 348 kts 357°
2026-05-06 00:52 23.18405 -102.69753 18753 ft 336 kts 357°
2026-05-06 00:52 23.20672 -102.69527 18353 ft 326 kts 15°
2026-05-06 00:52 23.22661 -102.68435 17963 ft 319 kts 40°
2026-05-06 00:52 23.24049 -102.66615 17561 ft 304 kts 66°
2026-05-06 00:53 23.24584 -102.64517 17051 ft 286 kts 91°
2026-05-06 00:53 23.24250 -102.62457 16376 ft 275 kts 118°
2026-05-06 00:53 23.23157 -102.60859 15795 ft 259 kts 138°
2026-05-06 00:53 23.21356 -102.59219 14829 ft 255 kts 144°
2026-05-06 00:54 23.20419 -102.58430 14269 ft 256 kts 144°
2026-05-06 00:54 23.19020 -102.57263 13479 ft 256 kts 145°
2026-05-06 00:54 23.17491 -102.56339 12685 ft 250 kts 166°
2026-05-06 00:54 23.15293 -102.56489 11818 ft 236 kts 200°
2026-05-06 00:55 23.14284 -102.56887 11626 ft 225 kts 203°
2026-05-06 00:55 23.12845 -102.57444 11369 ft 212 kts 198°
2026-05-06 00:55 23.11459 -102.57768 11128 ft 199 kts 194°
2026-05-06 00:55 23.10123 -102.58028 10889 ft 186 kts 193°
2026-05-06 00:56 23.08903 -102.58295 10657 ft 173 kts 201°
2026-05-06 00:56 23.07818 -102.58799 10259 ft 172 kts 209°
2026-05-06 00:56 23.06756 -102.59379 9929 ft 165 kts 209°
2026-05-06 00:56 23.05734 -102.59908 9603 ft 161 kts 206°
2026-05-06 00:57 23.04714 -102.60355 9243 ft 160 kts 205°
2026-05-06 00:57 23.03670 -102.60774 8857 ft 159 kts 203°
2026-05-06 00:57 23.02640 -102.61164 8567 ft 155 kts 203°
2026-05-06 00:57 23.01604 -102.61555 8539 ft 158 kts 202°
2026-05-06 00:58 23.00606 -102.62060 8533 ft 156 kts 213°
2026-05-06 00:58 22.99682 -102.62685 8531 ft 156 kts 215°
2026-05-06 00:58 22.98719 -102.63254 8556 ft 157 kts 209°
2026-05-06 00:58 22.97738 -102.63763 8544 ft 151 kts 208°
2026-05-06 00:59 22.96809 -102.64238 8453 ft 146 kts 212°
2026-05-06 00:59 22.95952 -102.64829 8352 ft 145 kts 216°
2026-05-06 00:59 22.95092 -102.65399 8205 ft 145 kts 212°
2026-05-06 00:59 22.94206 -102.65926 7988 ft 145 kts 212°
2026-05-06 01:00 22.93310 -102.66451 7768 ft 145 kts 212°
2026-05-06 01:00 22.92438 -102.66986 7571 ft 144 kts 213°
2026-05-06 01:00 22.91561 -102.67512 7339 ft 144 kts 211°
2026-05-06 01:00 22.90682 -102.68028 7152 ft 143 kts 211°
2026-05-06 01:01 22.89902 -102.68484 7140 ft 104 kts 207°
2026-05-06 01:01 22.89409 -102.68766 7140 ft 54 kts 208°
2026-05-06 01:01 22.89128 -102.68929 7142 ft 42 kts 207°
2026-05-06 01:01 22.88885 -102.69071 7144 ft 37 kts 208°
2026-05-06 01:02 22.88667 -102.69192 7146 ft 32 kts 207°
2026-05-06 01:02 22.88503 -102.69287 7146 ft 14 kts 206°
2026-05-06 01:02 22.88420 -102.69290 7147 ft 6 kts 174°
2026-05-06 01:02 22.88396 -102.69316 7147 ft 5 kts 270°
2026-05-06 01:03 22.88431 -102.69328 7147 ft 8 kts 19°
2026-05-06 01:03 22.88501 -102.69291 7146 ft 13 kts 28°
2026-05-06 01:03 22.88600 -102.69234 7146 ft 18 kts 28°
2026-05-06 01:03 22.88726 -102.69160 7145 ft 22 kts 28°
2026-05-06 01:04 22.88878 -102.69074 7144 ft 26 kts 27°
2026-05-06 01:04 22.89051 -102.68977 7142 ft 29 kts 27°
2026-05-06 01:04 22.89226 -102.68877 7141 ft 28 kts 28°
2026-05-06 01:04 22.89395 -102.68777 7140 ft 26 kts 28°
2026-05-06 01:05 22.89554 -102.68684 7139 ft 25 kts 28°
2026-05-06 01:05 22.89706 -102.68597 7139 ft 24 kts 28°
2026-05-06 01:05 22.89850 -102.68513 7139 ft 22 kts 28°
2026-05-06 01:05 22.89986 -102.68436 7140 ft 21 kts 27°
2026-05-06 01:06 22.90102 -102.68372 7140 ft 15 kts 26°
2026-05-06 01:06 22.90161 -102.68308 7140 ft 11 kts 95°
2026-05-06 01:06 22.90119 -102.68209 7141 ft 10 kts 123°
2026-05-06 01:06 22.90100 -102.68182 7141 ft 6 kts 121°
2026-05-06 01:07 22.90078 -102.68139 7142 ft 5 kts 118°
2026-05-06 01:07 22.90070 -102.68121 7142 ft 1 kts 117°
2026-05-06 01:07 22.90068 -102.68118 7142 ft 0 kts 117°